Showing default

CARTOSAT 3, 44804

Orbit data source: Space-Track

CARTOSAT 3, 44804 is a payload satellite owned by ISRO (IN) in SSO that was launched on Wed, 27 Nov 2019 UTC via a PSLV-XL launch vehicle from the Sirharikota (SRI). Payload-class satellites include a variety of spacecraft equipped with specific instruments for various scientific and technological missions. These include communications satellites like Starlink; space stations such as the ISS; scientific satellites like the Hubble; Earth observation satellites from companies like Planet Labs, Umbra, and HawkEye 360; GPS; miniature CubeSats for education and research; and military/defense satellites.

Loading next visibility...
Identifier
44804, 2019-081A
Orbit
SSO
Last TLE update
4 hours ago
Origin
Manufacturer
ISRO
Mission
Operational Civil Imaging
Bus & Motor
IRS-2, AOCS
Mass
1,625 kg wet, ~1,500 kg dry
Launch date (UTC)
2019-11-27 (5 years ago)
Launch vehicle
PSLV-XL
Launch site
Sirharikota (SRI)
Object type
Payload
Rocket body
Debris
Shape & HBR
Hex Cyl + 2 Pan, Unknown HBR
Radar Cross Section
9.780 m², Large (>1 m²)

Expand to show TLE details & history

TLE from 4 hours ago
0 CARTOSAT 3
1 44804U 19081A   25129.21131889  .00005435  00000-0  26068-3 0  9993
2 44804  97.4834 191.1155 0015355 123.8476 236.4222 15.19205688302089
Epoch: 2025-05-09T05:04Z
Definitive object data (Epoch: 2025-05-09T05:04:17.952Z)
Latitude
-0.00003°
Longitude
-112.23001°
Altitude
517.188 km
Speed
7.602 km/s
True Right ascension
12h 44m 27s
True Declination
0° 00' 00"
Sunlit
Object was in full shadow at TLE epoch
Visualization TLE readout
Latitude
49.06695°
Longitude
76.58764°
Altitude
505.543 km
Speed
7.622 km/s
Apparent Right ascension
03h 13m 23s
Apparent Declination
7° 31' 34"
Sunlit
Object is in daylight
Visualization observer readout
Local Sidereal Time
16:57:30
Azimuth
32.918° NE
Elevation
-36.813°
Doppler factor
1
Orbital elements
Apogee altitude
515.78 km
Perigee altitude
494.641 km
Semi-major axis
6,883.347 km
Eccentricity
0.0015355
Inclination
97.4834°
RAAN
191.1155°
Arg. of periapsis
123.8476°
True anomaly
236.27576°
Mean anomaly
236.4222°
Eccentric anomaly
236.34896°
Mean motion
3.80053 °/min
BSTAR
0.00026068
Orbital period
94.72 mins
Loading maneuver chart data...
Loading SW <> Apogee altitude chart data...
Loading historical data...
Loading historical data...
Loading historical data...
Loading historical data...
Loading historical data...
Loading historical data...
Loading historical data...

CARTOSAT 3 Visibility forecast

Observer location: undefined°, undefined°

Span
Click to sort rows by Start time (UTC) header in descending order
Start Az.
Max El. time (UTC)
Max El. Az.
Max El.
End time (UTC)
End Az.
6 mins2025-05-09 16:42:17.360Z25.108° NE2025-05-09 16:45:17.360Z113.802° SE38.47°2025-05-09 16:48:17.360Z176.867° S
|